Simultaneous Nadir Overpasses (SNOs) Predictions

Prediction of SNOs between GOES-17 and METOP-B Satellite Orbit:

Table of predicted SNOs for the next 14.0 days since TLE Epoch: 7/2/2022
Index Date Time (GOES-17) GOES-17 Lat,Lon METOP-B Lat,Lon Distance(km) Time Diff (sec)
1 07/02/2022 18:46:26 0.03,-137.20 0.53,-139.34 244.99 80
2 07/03/2022 18:28:27 0.03,-137.20 -0.63,-134.36 324.15 80
3 07/05/2022 06:44:48 -0.02,-137.20 -0.40,-138.96 200.11 80
4 07/06/2022 06:26:48 -0.02,-137.20 0.71,-133.96 368.74 80
5 07/07/2022 18:43:00 0.02,-137.19 0.32,-138.52 152.03 80
6 07/08/2022 18:25:00 0.02,-137.18 -0.79,-133.53 416.36 80
7 07/10/2022 06:41:20 -0.02,-137.16 -0.23,-138.12 109.20 80
8 07/11/2022 06:23:21 -0.03,-137.15 0.88,-133.13 458.49 80
9 07/12/2022 18:39:32 0.03,-137.12 0.15,-137.69 64.18 80
10 07/15/2022 06:37:53 -0.02,-137.08 -0.05,-137.29 24.10 80
